Course Search

Watch these short videos to help you get registered for classes or contact Student Services for assistance: studentservices@nwicc.edu or 800-352-4907!


Use the below form to search our courses. By clicking the table headings, you can sort the courses alphabetically/numerically by that column.


Refresh Full Course Schedule
PDF
Term Department Section Number Section Name Credits Section Title Days Location Start Date End Date Start Time End Time Instructor Book Info
2021SP Health 72488 EMS-225 3 EMT Basic II On-Campus 1/11/2021 5/14/2021 Miller, Kevin
2021SP Business 72538 BUS-161 3 Human Relations Online 12/23/2020 1/22/2021
2021SP Social Science 72539 CRJ-100 3 Intro to Criminal Justice Online 12/23/2020 1/22/2021
2021SP Humanities 72540 HUM-137 3 Humanities of the Modern World Online 12/23/2020 1/22/2021
2021SP Humanities 72541 MUS-100 3 Music Appreciation Online 12/23/2020 1/22/2021
2021SP Science 72542 BIO-151 3 Nutrition Online 12/23/2020 1/22/2021
2021SP Business 72543 MKT-110 3 Principles of Marketing Online 12/23/2020 1/22/2021
2021SP Social Science 72544 SOC-110 3 Introduction to Sociology Online 12/23/2020 1/22/2021
2021SP Health 72545 HSC-106 3 Contemporary Health Issues Online 12/23/2020 1/22/2021
2021SP Health 72546 PEH-109 1 Personal Wellness Online 12/23/2020 1/22/2021
2021SP Coaching 72547 PEH-111 3 Personal Wellness Online 12/23/2020 1/22/2021
2021SP Humanities 72548 REL-101 3 Survey of World Religions Online 12/23/2020 1/22/2021
2021SP Social Science 72549 PSY-102 3 Human and Work Relations Online 12/23/2020 1/22/2021
2021SP Business 72550 MGT-101 3 Principles of Management Online 12/23/2020 1/22/2021
2021SP Humanities 72551 HIS-117 3 Western Civ 1: Anc & Medieval Online 12/23/2020 1/22/2021
2021SP Humanities 72552 HIS-118 3 Western Civ II: Early Modern Online 12/23/2020 1/22/2021
2021SP Social Science 72553 PSY-111 3 Introduction to Psychology Online 12/23/2020 1/22/2021
2021SP Social Science 72554 PSY-241 3 Abnormal Psychology Online 12/23/2020 1/22/2021
2021SP Social Science 72555 PSY-121 3 Developmental Psychology Online 12/23/2020 1/22/2021
2021SP Social Science 72556 PSY-222 3 Child Psychology Online 12/23/2020 1/22/2021
2021SP Mathematics 72557 MAT-110 3 Math for Liberal Arts Online 12/23/2020 1/22/2021
2021SP Social Science 72558 POL-111 3 American National Government Online 12/23/2020 1/22/2021
2021SP Humanities 72560 ART-186 3 Digital Photography Online 12/23/2020 1/22/2021
2021SP Business 72561 BUS-102 3 Introduction to Business Online 12/23/2020 1/22/2021
2021SP Business 72562 BUS-106 2 Employment Strategies Online 12/23/2020 1/22/2021
2021SP Business 72563 BUS-180 3 Business Ethics Online 12/23/2020 1/22/2021
2021SP Computer Science 72564 CSC-110 3 Introduction to Computers Online 12/23/2020 1/22/2021 Cengage Unlimited
2021SP Business 72565 FIN-121 3 Personal Finance Online 12/23/2020 1/22/2021
2021SP Humanities 72566 GEO-121 3 World Regional Geography Online 12/23/2020 1/22/2021
2021SP Humanities 72567 GLS-100 3 Contemporary World Issues Online 12/23/2020 1/22/2021
2021SP Humanities 72568 HIS-110 3 West. Civ: Ancient to Erly Mod Online 12/23/2020 1/22/2021 Cengage Unlimited
2021SP Humanities 72569 HIS-111 3 Western Civ: Early Mod to Pres Online 12/23/2020 1/22/2021
2021SP Social Science 72570 HIS-151 3 U.S. History to 1877 Online 12/23/2020 1/22/2021
2021SP Social Science 72571 HIS-152 3 U.S.History Since 1877 Online 12/23/2020 1/22/2021
2021SP Health 72572 HSC-105 1 Intro to Health Occupations Online 12/23/2020 1/22/2021
2021SP Health 72573 HSC-113 2 Medical Terminology Online 12/23/2020 1/22/2021
2021SP Health 72574 HSC-114 3 Medical Terminology Online 12/23/2020 1/22/2021
2021SP Humanities 72575 HUM-110 3 Changes and Choices Online 12/23/2020 1/22/2021
2021SP Humanities 72576 MUS-204 3 History of Rock and Roll Online 12/23/2020 1/22/2021
2021SP Coaching 72577 PEH-255 3 Priniples of Sports Management Online 12/23/2020 1/22/2021
2021SP Humanities 72578 PHI-105 3 Intro to Ethics Online 12/23/2020 1/22/2021
2021SP Social Science 72579 SOC-120 3 Marriage and Family Online 12/23/2020 1/22/2021
2021SP Humanities 72585 ART-117 3 Computer Graphic Design Online 1/11/2021 5/2/2021
2021SP Communications 72586 ENG-106 3 Composition II Online 1/11/2021 5/2/2021
2021SP Social Science 72587 HIS-257 3 African American History Online 1/11/2021 5/2/2021
2021SP Humanities 72588 MUS-205 3 Jazz History & Appreciation Online 1/11/2021 5/2/2021
2021SP Humanities 72590 ANT-105 3 Cultural Anthropology Online 1/11/2021 5/2/2021
2021SP Humanities 72591 LIT-185 3 Contemporary Literature Online 1/11/2021 5/2/2021
2021SP Science 72592 BIO-105 4 Introductory Biology Online 1/11/2021 5/2/2021
2021SP Communications 72593 ENG-105 3 Composition I Online 1/11/2021 5/2/2021

Course Search

Term Department Section Number Section Name Credits Section Title Days Location Start Date End Date Start Time End Time Instructor
2021SP Health 72488 EMS-225 3 EMT Basic II On-Campus 1/11/2021 5/14/2021 Miller, Kevin
2021SP Business 72538 BUS-161 3 Human Relations Online 12/23/2020 1/22/2021
2021SP Social Science 72539 CRJ-100 3 Intro to Criminal Justice Online 12/23/2020 1/22/2021
2021SP Humanities 72540 HUM-137 3 Humanities of the Modern World Online 12/23/2020 1/22/2021
2021SP Humanities 72541 MUS-100 3 Music Appreciation Online 12/23/2020 1/22/2021
2021SP Science 72542 BIO-151 3 Nutrition Online 12/23/2020 1/22/2021
2021SP Business 72543 MKT-110 3 Principles of Marketing Online 12/23/2020 1/22/2021
2021SP Social Science 72544 SOC-110 3 Introduction to Sociology Online 12/23/2020 1/22/2021
2021SP Health 72545 HSC-106 3 Contemporary Health Issues Online 12/23/2020 1/22/2021
2021SP Health 72546 PEH-109 1 Personal Wellness Online 12/23/2020 1/22/2021
2021SP Coaching 72547 PEH-111 3 Personal Wellness Online 12/23/2020 1/22/2021
2021SP Humanities 72548 REL-101 3 Survey of World Religions Online 12/23/2020 1/22/2021
2021SP Social Science 72549 PSY-102 3 Human and Work Relations Online 12/23/2020 1/22/2021
2021SP Business 72550 MGT-101 3 Principles of Management Online 12/23/2020 1/22/2021
2021SP Humanities 72551 HIS-117 3 Western Civ 1: Anc & Medieval Online 12/23/2020 1/22/2021
2021SP Humanities 72552 HIS-118 3 Western Civ II: Early Modern Online 12/23/2020 1/22/2021
2021SP Social Science 72553 PSY-111 3 Introduction to Psychology Online 12/23/2020 1/22/2021
2021SP Social Science 72554 PSY-241 3 Abnormal Psychology Online 12/23/2020 1/22/2021
2021SP Social Science 72555 PSY-121 3 Developmental Psychology Online 12/23/2020 1/22/2021
2021SP Social Science 72556 PSY-222 3 Child Psychology Online 12/23/2020 1/22/2021
2021SP Mathematics 72557 MAT-110 3 Math for Liberal Arts Online 12/23/2020 1/22/2021
2021SP Social Science 72558 POL-111 3 American National Government Online 12/23/2020 1/22/2021
2021SP Humanities 72560 ART-186 3 Digital Photography Online 12/23/2020 1/22/2021
2021SP Business 72561 BUS-102 3 Introduction to Business Online 12/23/2020 1/22/2021
2021SP Business 72562 BUS-106 2 Employment Strategies Online 12/23/2020 1/22/2021
2021SP Business 72563 BUS-180 3 Business Ethics Online 12/23/2020 1/22/2021
2021SP Computer Science 72564 CSC-110 3 Introduction to Computers Online 12/23/2020 1/22/2021
2021SP Business 72565 FIN-121 3 Personal Finance Online 12/23/2020 1/22/2021
2021SP Humanities 72566 GEO-121 3 World Regional Geography Online 12/23/2020 1/22/2021
2021SP Humanities 72567 GLS-100 3 Contemporary World Issues Online 12/23/2020 1/22/2021
2021SP Humanities 72568 HIS-110 3 West. Civ: Ancient to Erly Mod Online 12/23/2020 1/22/2021
2021SP Humanities 72569 HIS-111 3 Western Civ: Early Mod to Pres Online 12/23/2020 1/22/2021
2021SP Social Science 72570 HIS-151 3 U.S. History to 1877 Online 12/23/2020 1/22/2021
2021SP Social Science 72571 HIS-152 3 U.S.History Since 1877 Online 12/23/2020 1/22/2021
2021SP Health 72572 HSC-105 1 Intro to Health Occupations Online 12/23/2020 1/22/2021
2021SP Health 72573 HSC-113 2 Medical Terminology Online 12/23/2020 1/22/2021
2021SP Health 72574 HSC-114 3 Medical Terminology Online 12/23/2020 1/22/2021
2021SP Humanities 72575 HUM-110 3 Changes and Choices Online 12/23/2020 1/22/2021
2021SP Humanities 72576 MUS-204 3 History of Rock and Roll Online 12/23/2020 1/22/2021
2021SP Coaching 72577 PEH-255 3 Priniples of Sports Management Online 12/23/2020 1/22/2021
2021SP Humanities 72578 PHI-105 3 Intro to Ethics Online 12/23/2020 1/22/2021
2021SP Social Science 72579 SOC-120 3 Marriage and Family Online 12/23/2020 1/22/2021
2021SP Humanities 72585 ART-117 3 Computer Graphic Design Online 1/11/2021 5/2/2021
2021SP Communications 72586 ENG-106 3 Composition II Online 1/11/2021 5/2/2021
2021SP Social Science 72587 HIS-257 3 African American History Online 1/11/2021 5/2/2021
2021SP Humanities 72588 MUS-205 3 Jazz History & Appreciation Online 1/11/2021 5/2/2021
2021SP Humanities 72590 ANT-105 3 Cultural Anthropology Online 1/11/2021 5/2/2021
2021SP Humanities 72591 LIT-185 3 Contemporary Literature Online 1/11/2021 5/2/2021
2021SP Science 72592 BIO-105 4 Introductory Biology Online 1/11/2021 5/2/2021
2021SP Communications 72593 ENG-105 3 Composition I Online 1/11/2021 5/2/2021
2021SP Business 72594 MKT-110 3 Principles of Marketing Online 1/11/2021 5/2/2021
2021SP Social Science 72595 SOC-110 3 Introduction to Sociology Online 1/11/2021 5/2/2021
2021SP Health 72596 HSC-106 3 Contemporary Health Issues Online 1/11/2021 5/2/2021
2021SP Health 72706 PEH-109 1 Personal Wellness Online 1/11/2021 5/2/2021
2021SP Humanities 72707 ART-120 3 2-D Design Online 1/11/2021 5/2/2021
2021SP Humanities 72708 DRA-101 3 Introduction to Theatre Online 1/11/2021 5/2/2021
2021SP Coaching 72709 PEH-111 3 Personal Wellness Online 1/11/2021 5/2/2021
2021SP Communications 72710 SPC-101 3 Fund. of Oral Communication Online 1/11/2021 5/2/2021
2021SP Humanities 72711 REL-101 3 Survey of World Religions Online 1/11/2021 5/2/2021
2021SP Social Science 72712 CRJ-141 3 Criminal Investigation Online 1/11/2021 5/2/2021
2021SP Humanities 72714 ART-203 3 Art History I Online 1/11/2021 5/2/2021
2021SP Social Science 72716 PSY-102 3 Human and Work Relations Online 1/11/2021 5/2/2021
2021SP Social Science 72717 PSY-251 3 Social Psychology Online 1/11/2021 5/2/2021
2021SP Humanities 72718 GEO-126 3 Cultural Geography Online 1/11/2021 5/2/2021
2021SP Science 72719 PHS-185 3 Intro to Earth Science Online 1/11/2021 5/2/2021
2021SP Science 72720 BIO-146 3 Genetics Online 1/11/2021 5/2/2021
2021SP Business 72725 BUS-161 3 Human Relations Online 1/11/2021 5/2/2021
2021SP Health 72780 EMS-225 3 EMT Basic II On-Campus 1/11/2021 5/14/2021 Miller, Kevin
2021SP Social Science 72784 CRJ-100 3 Intro to Criminal Justice Online 1/11/2021 5/2/2021
2021SP Humanities 72785 DRA-110 3 Introduction to Film Online 1/11/2021 5/2/2021
2021SP Social Science 72786 ECN-110 3 Introduction to Economics Online 1/11/2021 5/2/2021
2021SP Humanities 72787 FLF-141 4 Elementary French I Online 1/11/2021 5/2/2021
2021SP Humanities 72790 HUM-137 3 Humanities of the Modern World Online 1/11/2021 5/2/2021
2021SP Business 72791 MGT-101 3 Principles of Management Online 1/11/2021 5/2/2021
2021SP Business 72792 MGT-178 3 Employment Law Online 1/11/2021 5/2/2021
2021SP Humanities 72793 MMS-101 3 Mass Media Online 1/11/2021 5/2/2021
2021SP Humanities 72794 MUS-100 3 Music Appreciation Online 1/11/2021 5/2/2021
2021SP Humanities 72795 REL-150 3 Introduction to the Bible Online 1/11/2021 5/2/2021
2021SP Humanities 72796 HIS-117 3 Western Civ 1: Anc & Medieval Online 1/11/2021 5/2/2021
2021SP Humanities 72797 HIS-118 3 Western Civ II: Early Modern Online 1/11/2021 5/2/2021
2021SP Humanities 72798 HIS-119 3 Western Civ Iii: Modern Period Online 1/11/2021 5/2/2021
2021SP Coaching 72799 PEC-108 3 Sports and Society Online 1/11/2021 5/2/2021
2021SP Humanities 72800 ART-101 3 Art Appreciation Online 1/11/2021 5/2/2021
2021SP Humanities 72801 ART-204 3 Art History II Online 1/11/2021 5/2/2021
2021SP Mathematics 72802 MAT-117 3 Math for Elementary Teachers Online 1/11/2021 5/2/2021
2021SP Social Science 72803 POL-129 3 Politics of Terrorism Online 1/11/2021 5/2/2021
2021SP Social Science 72804 SOC-186 3 Contemporary Global Issues Online 1/11/2021 5/2/2021
2021SP Social Science 72805 PSY-223 3 Child & Adolescent Psychology Online 1/11/2021 5/2/2021
2021SP Social Science 72806 PSY-111 3 Introduction to Psychology Online 1/11/2021 5/2/2021
2021SP Social Science 72807 PSY-241 3 Abnormal Psychology Online 1/11/2021 5/2/2021
2021SP Business 72808 BUS-130 3 Intro to Entrepreneurship Online 1/11/2021 5/2/2021
2021SP Business 72809 MKT-150 3 Principles of Advertising Online 1/11/2021 5/2/2021
2021SP Social Science 72810 PSY-121 3 Developmental Psychology Online 1/11/2021 5/2/2021
2021SP Social Science 72811 PSY-222 3 Child Psychology Online 1/11/2021 5/2/2021
2021SP Science 72813 BIO-151 3 Nutrition Online 1/11/2021 5/2/2021
2021SP Science 72814 BIO-168 4 Human Anatomy & Physiology I Online 1/11/2021 5/2/2021
2021SP Science 72817 BIO-173 4 Human Anatomy & Physiology II Online 1/11/2021 5/2/2021
2021SP Science 72818 PHY-212 5 Classical Physics I Online 1/11/2021 5/2/2021
2021SP Science 72819 PHY-222 5 Classic Physics II Online 1/11/2021 5/2/2021
2021SP Communications 72820 SPC-112 3 Public Speaking Online 1/11/2021 5/2/2021
2021SP Business 72821 MGT-174 3 Training and Employee Developm Online 1/11/2021 5/2/2021
2021SP Social Science 72822 ECN-120 3 Principles of Macroeconomics Online 1/11/2021 5/2/2021
2021SP Social Science 72823 ECN-130 3 Principles of Microeconomics Online 1/11/2021 5/2/2021
2021SP Science 72824 BIO-186 4 Microbiology Online 1/11/2021 5/2/2021
2021SP Social Science 72825 CRJ-130 3 Criminal Law Online 1/11/2021 5/2/2021
2021SP Mathematics 72826 MAT-054 3 Math Strategies Online 1/11/2021 5/2/2021
2021SP Mathematics 72827 MAT-102 4 Intermediate Algebra Online 1/11/2021 5/2/2021
2021SP Mathematics 72828 MAT-104 3 Applied Math Topics Online 1/11/2021 5/2/2021
2021SP Mathematics 72829 MAT-110 3 Math for Liberal Arts Online 1/11/2021 5/2/2021
2021SP Mathematics 72831 MAT-121 4 College Algebra Online 1/11/2021 5/2/2021
2021SP Mathematics 72832 MAT-140 3 Finite Math Online 1/11/2021 5/2/2021
2021SP Mathematics 72833 MAT-156 3 Statistics Online 1/11/2021 5/2/2021
2021SP Business 72834 MGT-130 3 Principles of Supervision Online 1/11/2021 5/2/2021
2021SP Science 72835 PHS-113 4 Introduction to Physical Scien Online 1/11/2021 5/2/2021
2021SP Social Science 72846 PSY-226 3 Psychology of Aging Online 1/11/2021 5/2/2021
2021SP Social Science 72847 POL-111 3 American National Government Online 1/11/2021 5/2/2021
2021SP Humanities 72848 ART-186 3 Digital Photography Online 1/11/2021 5/2/2021
2021SP Business 72850 ACC-131 4 Principles of Accounting I Online 1/11/2021 5/2/2021
2021SP Business 72851 ADM-105 1 Intro to Keyboarding Online 1/11/2021 5/2/2021
2021SP Business 72852 ADM-122 3 Document Formatting Online 1/11/2021 5/2/2021
2021SP Business 72855 ADM-179 3 Records Management Online 1/11/2021 5/2/2021
2021SP Business 72856 ADM-192 3 Virtual Office Mangement II Online 1/11/2021 5/2/2021
2021SP Agriculture 72857 AGA-114 3 Principles of Agronomy Online 1/11/2021 5/2/2021
2021SP Agriculture 72858 AGB-235 3 Introduction to Ag Markets Online 1/11/2021 5/2/2021
2021SP Agriculture 72860 AGB-336 3 Agriculture Selling Online 1/11/2021 5/2/2021
2021SP Agriculture 72862 AGC-403 2 Sustainable Agriculture Online 1/11/2021 5/2/2021
2021SP Agriculture 72863 AGC-420 3 Issues in Agriculture Online 1/11/2021 5/2/2021
2021SP Agriculture 72864 AGH-284 3 Pesticide Application Cert Online 1/11/2021 5/2/2021
2021SP Agriculture 72865 AGS-113 3 Survey of the Animal Industry Online 1/11/2021 5/2/2021
2021SP Agriculture 72866 AGS-226 3 Beef Cattle Science Online 1/11/2021 5/2/2021
2021SP Agriculture 72867 AGS-242 3 Animal Health Online 1/11/2021 5/2/2021
2021SP Agriculture 72868 AGS-319 3 Animal Nutrition Online 1/11/2021 5/2/2021
2021SP Humanities 72869 ART-124 3 Computer Art Online 1/11/2021 5/2/2021
2021SP Humanities 72870 ART-133 3 Drawing Online 1/11/2021 5/2/2021
2021SP Humanities 72871 ART-143 3 Painting Online 1/11/2021 5/2/2021
2021SP Computer Science 72873 BCA-215 3 Computer Business Applications Online 1/11/2021 5/2/2021
2021SP Computer Science 72874 BCA-218 3 Advanced Office Applications Online 1/11/2021 5/2/2021
2021SP Business 72875 BCA-220 2 Integrated Computer Business a Online 1/11/2021 5/2/2021
2021SP Business 72876 BCA-250 3 Desktop Publishing-Publisher Online 1/11/2021 5/2/2021
2021SP Science 72877 BIO-114 4 General Biology IA Online 1/11/2021 5/2/2021
2021SP Science 72878 BIO-115 4 General Biology IIA Online 1/11/2021 5/2/2021
2021SP Science 72879 BIO-125 4 Plant Biology Online 1/11/2021 5/2/2021
2021SP Science 72884 BIO-157 4 Human Biology Online 1/11/2021 5/2/2021
2021SP Science 72885 BIO-162 3 Essentials of Anatomy & Phys Online 1/11/2021 5/2/2021
2021SP Science 72893 BIO-163 4 Essentials of Anatomy and Phys Online 1/11/2021 5/2/2021
2021SP Business 72894 BUS-102 3 Introduction to Business Online 1/11/2021 5/2/2021
2021SP Business 72895 BUS-106 2 Employment Strategies Online 1/11/2021 5/2/2021
2021SP Business 72896 BUS-110 3 Business Math & Calculators Online 1/11/2021 5/2/2021
2021SP Communications 72897 BUS-121 3 Business Communications Online 1/11/2021 5/2/2021
2021SP Business 72899 BUS-150 3 E-Commerce Online 1/11/2021 5/2/2021
2021SP Business 72901 BUS-180 3 Business Ethics Online 1/11/2021 5/2/2021
2021SP Business 72903 BUS-185 3 Business Law I Online 1/11/2021 5/2/2021
2021SP Business 72904 BUS-186 3 Business Law II Online 1/11/2021 5/2/2021
2021SP Business 72905 BUS-197 3 Leadership Development Online 1/11/2021 5/2/2021
2021SP Business 72906 BUS-210 3 Business Statistics Online 1/11/2021 5/2/2021
2021SP Business 72907 BUS-250 3 Principles of Real Estate Online 1/11/2021 5/2/2021
2021SP Science 72909 CHM-110 3 Introduction to Chemistry Online 1/11/2021 5/2/2021
2021SP Science 72910 CHM-122 4 Intro to General Chemistry Online 1/11/2021 5/2/2021
2021SP Science 72911 CHM-132 4 Intro to Organic & Biochem Online 1/11/2021 5/2/2021
2021SP Science 72912 CHM-151 4 College Chemistry I Online 1/11/2021 5/2/2021
2021SP Science 72913 CHM-152 4 College Chemistry II Online 1/11/2021 5/2/2021
2021SP Science 72914 CHM-166 5 General Chemistry I Online 1/11/2021 5/2/2021
2021SP Science 72915 CHM-176 5 General Chemistry II Online 1/11/2021 5/2/2021
2021SP Computer Science 72916 CIS-121 3 Intro to Programming Logic Online 1/11/2021 5/2/2021
2021SP Computer Science 72917 CIS-140 3 Intro to Game Design Online 1/11/2021 5/2/2021
2021SP Computer Science 72918 CIS-169 3 C++ Online 1/11/2021 5/2/2021
2021SP Computer Science 72919 CIS-171 3 Java Online 1/11/2021 5/2/2021
2021SP Computer Science 72920 CIS-185 5 Oracle Academy: Database Desig Online 1/11/2021 5/2/2021
2021SP Computer Science 72921 CIS-210 3 Web Development I Online 1/11/2021 5/2/2021
2021SP Computer Science 72922 CIS-211 3 Web Development II Online 1/11/2021 5/2/2021
2021SP Computer Science 72923 CIS-251 3 Fundamentals of Web Design I Online 1/11/2021 5/2/2021
2021SP Computer Science 72925 CIS-606 3 Visual Basic.NET I Online 1/11/2021 5/2/2021
2021SP Computer Science 72926 CIS-750 3 Project Management Online 1/11/2021 5/2/2021
2021SP Humanities 72927 CLS-150 3 Latin American History & Cult Online 1/11/2021 5/2/2021
2021SP Communications 72928 COM-140 3 Introduction to Mass Media Online 1/11/2021 5/2/2021
2021SP Social Science 72929 CRJ-101 3 Ethics in Criminal Justice Online 1/11/2021 5/2/2021
2021SP Social Science 72930 CRJ-118 3 Law Enforcement Online 1/11/2021 5/2/2021
2021SP Social Science 72931 CRJ-120 3 Introduction to Corrections Online 1/11/2021 5/2/2021
2021SP Social Science 72932 CRJ-200 3 Criminology Online 1/11/2021 5/2/2021
2021SP Social Science 72933 CRJ-207 3 Drug Use and Abuse Online 1/11/2021 5/2/2021
2021SP Computer Science 72935 CSC-110 3 Introduction to Computers Online 1/11/2021 5/2/2021
2021SP Computer Science 72936 CSC-116 3 Information Computing Online 1/11/2021 5/2/2021
2021SP Education 72937 ECE-103 3 Intro to Early Childhood Ed Online 1/11/2021 5/2/2021
2021SP Education 72940 ECE-133 3 Child Health Safety & Nutritio Online 1/11/2021 5/2/2021
2021SP Education 72941 ECE-158 3 Early Childhood Curr I Online 1/11/2021 5/2/2021
2021SP Education 72943 ECE-170 3 Child Growth and Development Online 1/11/2021 5/2/2021
2021SP Education 72945 ECE-221 3 Infant/Toddler Care & Educ Online 1/11/2021 5/2/2021
2021SP Education 72946 ECE-243 3 Early Childhood Guidance Online 1/11/2021 5/2/2021
2021SP Education 72947 ECE-290 3 Early Childhood Prgm Admin. Online 1/11/2021 5/2/2021
2021SP Education 72949 EDU-210 3 Foundations of Education Online 1/11/2021 5/2/2021
2021SP Education 72951 EDU-213 3 Introduction to Education Online 1/11/2021 5/2/2021
2021SP Education 72952 EDU-220 3 HR for the Classroom Teacher Online 1/11/2021 5/2/2021
2021SP Education 72954 EDU-235 3 Children's Literature Online 1/11/2021 5/2/2021
2021SP Education 72955 EDU-240 3 Educational Psychology Online 1/11/2021 5/2/2021
2021SP Education 72956 EDU-245 3 Exceptional Learner Online 1/11/2021 5/2/2021
2021SP Education 72957 EDU-255 3 Technology in the Classroom Online 1/11/2021 5/2/2021
2021SP Communications 72958 ENG-107 3 Composition I: Technical Writi Online 1/11/2021 5/2/2021
2021SP Communications 72959 ENG-221 3 Creative Writing Online 1/11/2021 5/2/2021
2021SP Science 72960 ENV-111 4 Environmental Science Online 1/11/2021 5/2/2021
2021SP Science 72961 ENV-145 4 Conservation Biology Online 1/11/2021 5/2/2021
2021SP Business 72965 FIN-121 3 Personal Finance Online 1/11/2021 5/2/2021
2021SP Humanities 72966 FLS-141 4 Elementary Spanish I Online 1/11/2021 5/2/2021
2021SP Humanities 72967 FLS-142 4 Elementary Spanish II Online 1/11/2021 5/2/2021
2021SP Humanities 72969 FLS-231 3 Intermediate Spanish I Online 1/11/2021 5/2/2021
2021SP Humanities 72970 FLS-232 3 Intermediate Spanish II Online 1/11/2021 5/2/2021
2021SP Humanities 72971 FLS-241 4 Intermediate Spanish I Online 1/11/2021 5/2/2021
2021SP Humanities 72972 FLS-242 4 Intermediate Spanish II Online 1/11/2021 5/2/2021
2021SP Humanities 72975 GEO-121 3 World Regional Geography Online 1/11/2021 5/2/2021
2021SP Humanities 72976 GLS-100 3 Contemporary World Issues Online 1/11/2021 5/2/2021
2021SP General Arts & Science 72977 GRA-121 3 Digital Drawing Online 1/11/2021 5/2/2021
2021SP Computer Science 72978 GRA-132 3 Digital Layout II Online 1/11/2021 5/2/2021
2021SP General Arts & Science 72979 GRA-158 3 Web Multimedia Online 1/11/2021 5/2/2021
2021SP Computer Science 72980 GRA-173 3 Typography Online 1/11/2021 5/2/2021
2021SP General Arts & Science 72981 GRA-201 3 Design Principles I Online 1/11/2021 5/2/2021
2021SP Computer Science 72982 GRA-920 3 Graphic Design Capstone Online 1/11/2021 5/2/2021
2021SP Humanities 72983 HIS-110 3 West. Civ: Ancient to Erly Mod Online 1/11/2021 5/2/2021
2021SP Humanities 72984 HIS-111 3 Western Civ: Early Mod to Pres Online 1/11/2021 5/2/2021
2021SP Social Science 72985 HIS-151 3 U.S. History to 1877 Online 1/11/2021 5/2/2021
2021SP Social Science 72987 HIS-152 3 U.S.History Since 1877 Online 1/11/2021 5/2/2021
2021SP Social Science 72988 HIS-201 3 Iowa History Online 1/11/2021 5/2/2021
2021SP Humanities 72989 HIS-211 3 Modern Asian History Online 1/11/2021 5/2/2021
2021SP Humanities 72991 HIS-231 3 Contemporary World Affairs Online 1/11/2021 5/2/2021
2021SP Social Science 72992 HIS-251 3 U.S. History 1945-Present Online 1/11/2021 5/2/2021
2021SP Social Science 72993 HIS-268 3 American Experience in Vietnam Online 1/11/2021 5/2/2021
2021SP Humanities 72995 HIS-271 3 American Frontier History Online 1/11/2021 5/2/2021
2021SP Health 72996 HIT-139 3 Math for Hlth Care Prof Online 1/11/2021 5/2/2021
2021SP Health 72999 HIT-250 3 Coding I Online 1/11/2021 5/2/2021
2021SP Health 73000 HIT-251 3 Coding II Online 1/11/2021 5/2/2021
2021SP Health 73001 HIT-252 3 Coding III Online 1/11/2021 5/2/2021
2021SP Health 73003 HIT-312 3 Hlth Info. Management Systems Online 1/11/2021 5/2/2021
2021SP Health 73005 HSC-113 2 Medical Terminology Online 1/11/2021 5/2/2021
2021SP Health 73006 HSC-114 3 Medical Terminology Online 1/11/2021 5/2/2021
2021SP Health 73007 HSC-143 3 Pharmacology Online 1/11/2021 5/2/2021
2021SP Humanities 73009 HUM-110 3 Changes and Choices Online 1/11/2021 5/2/2021
2021SP Humanities 73011 HUM-220 3 Mythology Online 1/11/2021 5/2/2021
2021SP Humanities 73012 HUM-287 3 Leadership Development Studies Online 1/11/2021 5/2/2021
2021SP Humanities 73013 LIT-101 3 Introduction to Literature Online 1/11/2021 5/2/2021
2021SP Humanities 73014 LIT-111 3 American Lit. Since Mid-1800's Online 1/11/2021 5/2/2021
2021SP Mathematics 73016 MAT-128 4 Pre-Calculus Online 1/11/2021 5/2/2021
2021SP Mathematics 73017 MAT-165 3 Business Calculus Online 1/11/2021 5/2/2021
2021SP Mathematics 73018 MAT-210 4 Calculus I Online 1/11/2021 5/2/2021
2021SP Mathematics 73019 MAT-216 4 Calculus II Online 1/11/2021 5/2/2021
2021SP Mathematics 73020 MAT-219 4 Calculus III Online 1/11/2021 5/2/2021
2021SP Mathematics 73021 MAT-227 4 Differential Equations Online 1/11/2021 5/2/2021
2021SP Mathematics 73022 MAT-772 3 Applied Math Online 1/11/2021 5/2/2021
2021SP Business 73023 MGT-110 3 Small Business Management Online 1/11/2021 5/2/2021
2021SP Business 73024 MGT-151 3 Management Communication I Online 1/11/2021 5/2/2021
2021SP Business 73025 MGT-165 3 Principles of Quality Online 1/11/2021 5/2/2021
2021SP Business 73026 MGT-170 3 Human Resource Management Online 1/11/2021 5/2/2021
2021SP Business 73027 MGT-177 3 Staffing Online 1/11/2021 5/2/2021
2021SP Business 73029 MKT-121 3 Digital Marketing Online 1/11/2021 5/2/2021
2021SP Business 73030 MKT-140 3 Principles of Selling Online 1/11/2021 5/2/2021
2021SP Business 73031 MKT-160 3 Principles of Retailing Online 1/11/2021 5/2/2021
2021SP Business 73032 MKT-181 2 Customer Service Strategies Online 1/11/2021 5/2/2021
2021SP Humanities 73033 MUS-102 3 Music Fundamentals Online 1/11/2021 5/2/2021
2021SP Humanities 73035 MUS-204 3 History of Rock and Roll Online 1/11/2021 5/2/2021
2021SP Computer Science 73037 NET-142 3 Network Essentials Online 1/11/2021 5/2/2021
2021SP Computer Science 73038 NET-167 4 Computer Sys & Troubleshoot Online 1/11/2021 5/2/2021
2021SP Computer Science 73040 NET-303 3 Windows Workstation Operating Online 1/11/2021 5/2/2021
2021SP Computer Science 73041 NET-305 3 Introduction to Network Operat Online 1/11/2021 5/2/2021
2021SP Computer Science 73044 NET-621 3 Network Security Analysis Online 1/11/2021 5/2/2021
2021SP Computer Science 73045 NET-637 3 Network Intrusion Investigatio Online 1/11/2021 5/2/2021
2021SP Computer Science 73047 NET-785 3 Fundamentals of Desktop Suppor Online 1/11/2021 5/2/2021
2021SP Coaching 73049 PEC-101 3 Introduction to Coaching Online 1/11/2021 5/2/2021
2021SP Coaching 73050 PEC-110 1 Coaching Ethics, Tech & Theory Online 1/11/2021 2/1/2021
2021SP Coaching 73051 PEC-115 1 Athletic Dev. & Human Growth Online 2/2/2021 2/23/2021
2021SP Health 73052 PEH-102 3 Health Online 1/11/2021 5/2/2021
2021SP Coaching 73053 PEH-255 3 Priniples of Sports Management Online 1/11/2021 5/2/2021
2021SP Humanities 73054 PHI-101 3 Introduction to Philosophy Online 1/11/2021 5/2/2021
2021SP Humanities 73055 PHI-105 3 Intro to Ethics Online 1/11/2021 5/2/2021
2021SP Humanities 73057 PHI-111 3 Basic Reasoning Online 1/11/2021 5/2/2021
2021SP Science 73059 PHS-142 3 Principles of Astronomy Online 1/11/2021 5/2/2021
2021SP Science 73061 PHS-166 4 Meteorology: Weather and Clima Online 1/11/2021 5/2/2021
2021SP Science 73062 PHS-172 4 Physical Geology Online 1/11/2021 5/2/2021
2021SP Science 73063 PHY-110 3 Survey of Physics I Online 1/11/2021 5/2/2021
2021SP Science 73064 PHY-162 4 College Physics I Online 1/11/2021 5/2/2021
2021SP Science 73065 PHY-172 4 College Physics II Online 1/11/2021 5/2/2021
2021SP Social Science 73066 POL-110 3 Intro to Political Science Online 1/11/2021 5/2/2021
2021SP Social Science 73067 POL-121 3 International Relations Online 1/11/2021 5/2/2021
2021SP Social Science 73068 PSY-224 3 Adolescent Psychology Online 1/11/2021 5/2/2021
2021SP Social Science 73069 PSY-261 3 Human Sexuality Online 1/11/2021 5/2/2021
2021SP Social Science 73070 PSY-262 3 Psychology of Gender Online 1/11/2021 5/2/2021
2021SP Social Science 73071 SOC-115 3 Social Problems Online 1/11/2021 5/2/2021
2021SP Social Science 73072 SOC-120 3 Marriage and Family Online 1/11/2021 5/2/2021
2021SP Social Science 73073 SOC-160 3 Introduction to Social Work Online 1/11/2021 5/2/2021
2021SP Social Science 73074 SOC-200 3 Minority Group Relations Online 1/11/2021 5/2/2021
2021SP Social Science 73075 SOC-210 3 Men, Women & Society Online 1/11/2021 5/2/2021
2021SP Social Science 73076 SOC-212 3 Diversity Online 1/11/2021 5/2/2021
2021SP Communications 73078 SPC-122 3 Interpersonal Communication Online 1/11/2021 5/2/2021
2021SP Science 73117 BIO-151 3 Nutrition Online 1/11/2021 5/2/2021
2021SP Science 73118 BIO-151 3 Nutrition Online 1/11/2021 5/2/2021
2021SP Science 73119 BIO-198 3 Introduction to Pathology Online 1/11/2021 5/2/2021 Knobloch, Tadd
2021SP Computer Science 73120 CSC-110 3 Introduction to Computers Online 1/11/2021 5/2/2021
2021SP Communications 73121 ENG-105 3 Composition I Online 1/11/2021 5/2/2021
2021SP Communications 73122 ENG-105 3 Composition I Online 1/11/2021 5/2/2021
2021SP Communications 73123 ENG-105 3 Composition I Online 1/11/2021 5/2/2021
2021SP Communications 73124 ENG-106 3 Composition II Online 1/11/2021 5/2/2021
2021SP Communications 73126 ENG-106 3 Composition II Online 1/11/2021 5/2/2021
2021SP Humanities 73127 HIS-110 3 West. Civ: Ancient to Erly Mod Online 1/11/2021 5/2/2021
2021SP Humanities 73128 HIS-111 3 Western Civ: Early Mod to Pres Online 1/11/2021 5/2/2021
2021SP Humanities 73129 HIS-111 3 Western Civ: Early Mod to Pres Online 1/11/2021 5/2/2021
2021SP Humanities 73130 HIS-111 3 Western Civ: Early Mod to Pres Online 1/11/2021 5/2/2021
2021SP Humanities 73131 HIS-111 3 Western Civ: Early Mod to Pres Online 1/11/2021 5/2/2021
2021SP Humanities 73132 HIS-111 3 Western Civ: Early Mod to Pres Online 1/11/2021 5/2/2021
2021SP Health 73133 HSC-114 3 Medical Terminology Online 1/11/2021 5/2/2021
2021SP Mathematics 73134 MAT-121 4 College Algebra Online 1/11/2021 5/2/2021
2021SP Humanities 73135 MUS-100 3 Music Appreciation Online 1/11/2021 5/2/2021
2021SP Humanities 73136 MUS-100 3 Music Appreciation Online 1/11/2021 5/2/2021
2021SP Humanities 73137 PHI-101 3 Introduction to Philosophy Online 1/11/2021 5/2/2021
2021SP Social Science 73138 PSY-111 3 Introduction to Psychology Online 1/11/2021 5/2/2021
2021SP Social Science 73140 PSY-111 3 Introduction to Psychology Online 1/11/2021 5/2/2021
2021SP Social Science 73141 PSY-111 3 Introduction to Psychology Online 1/11/2021 5/2/2021
2021SP Social Science 73142 PSY-121 3 Developmental Psychology Online 1/11/2021 5/2/2021
2021SP Social Science 73143 PSY-121 3 Developmental Psychology Online 1/11/2021 5/2/2021
2021SP Social Science 73144 SOC-110 3 Introduction to Sociology Online 1/11/2021 5/2/2021
2021SP Social Science 73145 SOC-110 3 Introduction to Sociology Online 1/11/2021 5/2/2021
2021SP Social Science 73146 SOC-110 3 Introduction to Sociology Online 1/11/2021 5/2/2021
2021SP Communications 73147 SPC-112 3 Public Speaking Online 1/11/2021 5/2/2021
2021SP Communications 73148 SPC-112 3 Public Speaking Online 1/11/2021 5/2/2021
2021SP Communications 73149 SPC-112 3 Public Speaking Online 1/11/2021 5/2/2021
2021SP Communications 73150 ENG-106 3 Composition II Online 1/11/2021 3/7/2021
2021SP Humanities 73151 HIS-111 3 Western Civ: Early Mod to Pres Online 1/11/2021 3/7/2021
2021SP Health 73152 HIT-272 3 Medical Coding II Online 1/11/2021 3/7/2021 Dummett-Leget, Tobi
2021SP Social Science 73153 SOC-110 3 Introduction to Sociology Online 1/11/2021 3/7/2021
2021SP Health 73154 HIT-273 3 Medical Coding III Online 3/8/2021 5/2/2021 Dummett-Leget, Tobi
2021SP Mathematics 73155 MAT-156 3 Statistics Online 3/8/2021 5/2/2021
2021SP Humanities 73156 REL-101 3 Survey of World Religions Online 3/8/2021 5/2/2021
2021SP Communications 73158 ENG-106 3 Composition II Online 1/11/2021 3/7/2021
2021SP Health 73159 HSC-245 1 Teambuilding Online 1/11/2021 3/7/2021
2021SP Science 73160 BIO-105 4 Introductory Biology Online 1/11/2021 3/7/2021
2021SP Communications 73161 ENG-105 3 Composition I Online 1/11/2021 3/7/2021
2021SP Business 73162 MKT-110 3 Principles of Marketing Online 1/11/2021 3/7/2021
2021SP Social Science 73163 SOC-110 3 Introduction to Sociology Online 1/11/2021 3/7/2021
2021SP Business 73164 BUS-161 3 Human Relations Online 1/11/2021 3/7/2021
2021SP Business 73165 MGT-101 3 Principles of Management Online 1/11/2021 3/7/2021
2021SP Humanities 73166 MUS-100 3 Music Appreciation Online 1/11/2021 3/7/2021
2021SP Humanities 73167 ART-101 3 Art Appreciation Online 1/11/2021 3/7/2021
2021SP Social Science 73168 PSY-111 3 Introduction to Psychology Online 1/11/2021 3/7/2021
2021SP Social Science 73169 PSY-241 3 Abnormal Psychology Online 1/11/2021 3/7/2021
2021SP Social Science 73170 PSY-121 3 Developmental Psychology Online 1/11/2021 3/7/2021
2021SP Science 73171 BIO-151 3 Nutrition Online 1/11/2021 3/7/2021
2021SP Science 73172 BIO-168 4 Human Anatomy & Physiology I Online 1/11/2021 3/7/2021
2021SP Science 73173 BIO-173 4 Human Anatomy & Physiology II Online 1/11/2021 3/7/2021
2021SP Communications 73174 SPC-112 3 Public Speaking Online 1/11/2021 3/7/2021
2021SP Social Science 73175 ECN-120 3 Principles of Macroeconomics Online 1/11/2021 3/7/2021
2021SP Social Science 73176 ECN-130 3 Principles of Microeconomics Online 1/11/2021 3/7/2021
2021SP Science 73177 BIO-186 4 Microbiology Online 1/11/2021 3/7/2021
2021SP Mathematics 73178 MAT-110 3 Math for Liberal Arts Online 1/11/2021 3/7/2021
2021SP Mathematics 73179 MAT-121 4 College Algebra Online 1/11/2021 3/7/2021
2021SP Mathematics 73180 MAT-156 3 Statistics Online 1/11/2021 3/7/2021
2021SP Business 73181 MGT-130 3 Principles of Supervision Online 1/11/2021 3/7/2021
2021SP Social Science 73182 POL-111 3 American National Government Online 1/11/2021 3/7/2021
2021SP Business 73183 ACC-131 4 Principles of Accounting I Online 1/11/2021 3/7/2021
2021SP Business 73184 ADM-105 1 Intro to Keyboarding Online 1/11/2021 3/7/2021
2021SP Agriculture 73186 AGB-330 3 Farm Business Management Online 1/11/2021 3/7/2021
2021SP Agriculture 73187 AGS-226 3 Beef Cattle Science Online 1/11/2021 3/7/2021
2021SP Business 73188 BCA-115 1 Internet Basics Online 1/11/2021 3/7/2021
2021SP Business 73189 BCA-120 1 Computer Orientation Online 1/11/2021 3/7/2021
2021SP Computer Science 73190 BCA-129 2 Basic Word Processing Online 1/11/2021 3/7/2021
2021SP Computer Science 73191 BCA-147 2 Basic Spreadsheets Online 1/11/2021 3/7/2021
2021SP Business 73193 BUS-102 3 Introduction to Business Online 1/11/2021 3/7/2021
2021SP Business 73195 BUS-167 1 Leadership and Professionalism Online 1/11/2021 3/7/2021
2021SP Business 73196 BUS-180 3 Business Ethics Online 1/11/2021 3/7/2021
2021SP Business 73197 BUS-185 3 Business Law I Online 1/11/2021 3/7/2021
2021SP Science 73198 CHM-122 4 Intro to General Chemistry Online 1/11/2021 3/7/2021
2021SP Computer Science 73199 CSC-110 3 Introduction to Computers Online 1/11/2021 3/7/2021
2021SP Science 73200 ENV-111 4 Environmental Science Online 1/11/2021 3/7/2021
2021SP Humanities 73201 FLS-141 4 Elementary Spanish I Online 1/11/2021 3/7/2021
2021SP Humanities 73202 FLS-142 4 Elementary Spanish II Online 1/11/2021 3/7/2021
2021SP Humanities 73203 GEO-121 3 World Regional Geography Online 1/11/2021 3/7/2021
2021SP Humanities 73204 HIS-110 3 West. Civ: Ancient to Erly Mod Online 1/11/2021 3/7/2021
2021SP Humanities 73205 HIS-111 3 Western Civ: Early Mod to Pres Online 1/11/2021 3/7/2021
2021SP Social Science 73206 HIS-151 3 U.S. History to 1877 Online 1/11/2021 3/7/2021
2021SP Social Science 73207 HIS-152 3 U.S.History Since 1877 Online 1/11/2021 3/7/2021
2021SP Health 73208 HIT-120 1 Pharmacology for HIT Online 1/11/2021 3/7/2021
2021SP Health 73209 HSC-105 1 Intro to Health Occupations Online 1/11/2021 3/7/2021
2021SP Health 73210 HSC-113 2 Medical Terminology Online 1/11/2021 3/7/2021
2021SP Health 73211 HSC-114 3 Medical Terminology Online 1/11/2021 3/7/2021
2021SP Applied Technologies 73212 HSE-100 3 Occupational Safety Online 1/11/2021 3/7/2021
2021SP Humanities 73213 LIT-101 3 Introduction to Literature Online 1/11/2021 3/7/2021
2021SP Mathematics 73214 MAT-772 3 Applied Math Online 1/11/2021 3/7/2021
2021SP Humanities 73215 PHI-101 3 Introduction to Philosophy Online 1/11/2021 3/7/2021
2021SP Humanities 73216 PHI-105 3 Intro to Ethics Online 1/11/2021 3/7/2021
2021SP Student Development 73217 SDV-108 1 The College Experience Online 1/11/2021 3/7/2021
2021SP Social Science 73218 SOC-120 3 Marriage and Family Online 1/11/2021 3/7/2021
2021SP Communications 73219 ENG-106 3 Composition II Online 3/8/2021 5/2/2021
2021SP Science 73220 BIO-105 4 Introductory Biology Online 3/8/2021 5/2/2021
2021SP Communications 73221 ENG-105 3 Composition I Online 3/8/2021 5/2/2021
2021SP Business 73222 MKT-110 3 Principles of Marketing Online 3/8/2021 5/2/2021
2021SP Social Science 73223 SOC-110 3 Introduction to Sociology Online 3/8/2021 5/2/2021
2021SP Business 73224 BUS-161 3 Human Relations Online 3/8/2021 5/2/2021
2021SP Humanities 73225 DRA-110 3 Introduction to Film Online 3/8/2021 5/2/2021
2021SP Business 73226 MGT-101 3 Principles of Management Online 3/8/2021 5/2/2021
2021SP Humanities 73227 MUS-100 3 Music Appreciation Online 3/8/2021 5/2/2021
2021SP Humanities 73228 ART-101 3 Art Appreciation Online 3/8/2021 5/2/2021
2021SP Social Science 73229 PSY-111 3 Introduction to Psychology Online 3/8/2021 5/2/2021
2021SP Social Science 73230 PSY-241 3 Abnormal Psychology Online 3/8/2021 5/2/2021
2021SP Social Science 73231 PSY-121 3 Developmental Psychology Online 3/8/2021 5/2/2021
2021SP Science 73232 BIO-151 3 Nutrition Online 3/8/2021 5/2/2021
2021SP Science 73233 BIO-168 4 Human Anatomy & Physiology I Online 3/8/2021 5/2/2021
2021SP Science 73234 BIO-173 4 Human Anatomy & Physiology II Online 3/8/2021 5/2/2021
2021SP Communications 73235 SPC-112 3 Public Speaking Online 3/8/2021 5/2/2021
2021SP Social Science 73236 ECN-120 3 Principles of Macroeconomics Online 3/8/2021 5/2/2021
2021SP Social Science 73237 ECN-130 3 Principles of Microeconomics Online 3/8/2021 5/2/2021
2021SP Science 73238 BIO-186 4 Microbiology Online 3/8/2021 5/2/2021
2021SP Mathematics 73239 MAT-110 3 Math for Liberal Arts Online 3/8/2021 5/2/2021
2021SP Mathematics 73240 MAT-121 4 College Algebra Online 3/8/2021 5/2/2021
2021SP Mathematics 73241 MAT-156 3 Statistics Online 3/8/2021 5/2/2021
2021SP Business 73242 MGT-130 3 Principles of Supervision Online 3/8/2021 5/2/2021
2021SP Social Science 73243 POL-111 3 American National Government Online 3/8/2021 5/2/2021
2021SP Business 73244 ACC-131 4 Principles of Accounting I Online 3/8/2021 5/2/2021
2021SP Business 73245 ACC-146 3 Managerial Accounting Online 3/8/2021 5/2/2021
2021SP Business 73247 ADM-105 1 Intro to Keyboarding Online 3/8/2021 5/2/2021
2021SP Agriculture 73248 AGA-182 3 Intro to Soil Science Online 3/8/2021 5/2/2021
2021SP Agriculture 73249 AGB-235 3 Introduction to Ag Markets Online 3/8/2021 5/2/2021
2021SP Agriculture 73251 AGS-226 3 Beef Cattle Science Online 3/8/2021 5/2/2021
2021SP Business 73252 BCA-148 2 Advanced Spreadsheets Online 3/8/2021 5/2/2021
2021SP Business 73253 BCA-165 2 Basic Databases Online 3/8/2021 5/2/2021
2021SP Science 73255 BIO-114 4 General Biology IA Online 3/7/2021 5/2/2021
2021SP Business 73256 BUS-102 3 Introduction to Business Online 3/8/2021 5/2/2021
2021SP Business 73257 BUS-150 3 E-Commerce Online 3/8/2021 5/2/2021
2021SP Business 73259 BUS-180 3 Business Ethics Online 3/8/2021 5/2/2021
2021SP Business 73260 BUS-185 3 Business Law I Online 3/8/2021 5/2/2021
2021SP Business 73261 BUS-186 3 Business Law II Online 3/8/2021 5/2/2021
2021SP Science 73262 CHM-122 4 Intro to General Chemistry Online 3/8/2021 5/2/2021
2021SP Science 73263 CHM-132 4 Intro to Organic & Biochem Online 3/8/2021 5/2/2021
2021SP Computer Science 73264 CSC-110 3 Introduction to Computers Online 3/8/2021 5/2/2021
2021SP Science 73265 ENV-111 4 Environmental Science Online 3/8/2021 5/2/2021
2021SP Humanities 73266 FLS-141 4 Elementary Spanish I Online 3/8/2021 5/2/2021
2021SP Humanities 73267 FLS-142 4 Elementary Spanish II Online 3/8/2021 5/2/2021
2021SP Humanities 73268 GEO-121 3 World Regional Geography Online 3/8/2021 5/2/2021
2021SP Humanities 73269 GLS-100 3 Contemporary World Issues Online 3/8/2021 5/2/2021
2021SP Humanities 73270 HIS-110 3 West. Civ: Ancient to Erly Mod Online 3/8/2021 5/2/2021
2021SP Humanities 73271 HIS-111 3 Western Civ: Early Mod to Pres Online 3/8/2021 5/2/2021
2021SP Social Science 73272 HIS-151 3 U.S. History to 1877 Online 3/8/2021 5/2/2021
2021SP Social Science 73273 HIS-152 3 U.S.History Since 1877 Online 3/8/2021 5/2/2021
2021SP Health 73275 HSC-113 2 Medical Terminology Online 3/8/2021 5/2/2021
2021SP Health 73276 HSC-114 3 Medical Terminology Online 3/8/2021 5/2/2021
2021SP Humanities 73277 LIT-101 3 Introduction to Literature Online 3/8/2021 5/2/2021
2021SP Mathematics 73278 MAT-772 3 Applied Math Online 3/8/2021 5/2/2021
2021SP Coaching 73279 PEC-126 2 Athletic Injury Prevention Online 3/18/2021 4/30/2021
2021SP Humanities 73280 PHI-101 3 Introduction to Philosophy Online 3/8/2021 5/2/2021
2021SP Humanities 73281 PHI-105 3 Intro to Ethics Online 3/8/2021 5/2/2021
2021SP Student Development 73282 SDV-108 1 The College Experience Online 3/8/2021 5/2/2021
2021SP Social Science 73283 SOC-120 3 Marriage and Family Online 3/8/2021 5/2/2021
2021SP Health 73331 HSC-172 3 Nurse Aid Off-Campus 1/14/2021 5/26/2021
2021SP Health 73332 HSC-172 3 Nurse Aid Off-Campus 1/5/2021 5/25/2021
2021SP Education 73333 ECE-103 3 Intro to Early Childhood Ed Off-Campus 1/5/2021 5/27/2021
2021SP Health 73334 HSC-172 3 Nurse Aid Off-Campus 1/5/2021 5/27/2021
2021SP Education 73335 EDU-150 1 Directed Observation Off-Campus 1/5/2021 5/27/2021
2021SP Health 73336 HSC-172 3 Nurse Aid Off-Campus 1/5/2021 5/26/2021
2021SP Agriculture 73337 AGS-113 3 Survey of the Animal Industry Off-Campus 1/5/2021 5/27/2021
2021SP Communications 73338 ENG-106 3 Composition II Off-Campus 1/5/2021 5/27/2021
2021SP Health 73339 HSC-172 3 Nurse Aid Off-Campus 1/5/2021 5/27/2021
2021SP Education 73340 EDU-150 1 Directed Observation Off-Campus 1/5/2021 5/25/2021
2021SP Humanities 73341 MUS-102 3 Music Fundamentals Off-Campus 1/5/2021 5/25/2021
2021SP Mathematics 73342 MAT-156 3 Statistics Off-Campus 1/5/2021 5/25/2021
2021SP Business 73344 BUS-123 3 Future At Work Business Capsto Off-Campus 1/5/2021 5/25/2021
2021SP Mathematics 73345 MAT-210 4 Calculus I Off-Campus 1/5/2021 5/25/2021
2021SP Health 73346 HSC-172 3 Nurse Aid Off-Campus 1/11/2021 5/14/2021
2021SP Health 73347 HSC-172 3 Nurse Aid Off-Campus 1/5/2021 5/25/2021
2021SP Agriculture 73348 AGA-114 3 Principles of Agronomy Off-Campus 1/5/2021 5/25/2021
2021SP Applied Technologies 73349 AUT-139 1 Basic Weld Thry & Applications Off-Campus 1/5/2021 3/12/2021
2021SP Applied Technologies 73350 AUT-139 1 Basic Weld Thry & Applications Off-Campus 3/13/2021 5/26/2021
2021SP Science 73351 BIO-105 4 Introductory Biology Off-Campus 1/5/2021 5/20/2021
2021SP Mathematics 73352 MAT-210 4 Calculus I Off-Campus 1/13/2021 5/26/2021
2021SP Mathematics 73353 MAT-121 4 College Algebra Off-Campus 1/13/2021 5/26/2021
2021SP Social Science 73354 HIS-152 3 U.S.History Since 1877 Off-Campus 1/13/2021 5/26/2021
2021SP Communications 73355 ENG-105 3 Composition I Off-Campus 1/12/2021 5/21/2021
2021SP Health 73356 HSC-172 3 Nurse Aid Off-Campus 1/11/2021 5/14/2021
2021SP Business 73357 ACC-131 4 Principles of Accounting I T TH Online 1/11/2021 5/2/2021 1:25PM 3:25PM Drenkow, Sheila
2021SP Business 73358 ACC-132 4 Principles of Accounting II M W Online 1/11/2021 5/2/2021 8:00AM 10:00AM Drenkow, Sheila
2021SP Business 73359 ACC-261 3 Income Tax Accounting M W Online 1/11/2021 5/2/2021 1:25PM 3:25PM Drenkow, Sheila
2021SP Business 73360 ACC-232 4 Intermediate Accounting II M W Online 1/11/2021 5/2/2021 10:10AM 12:10PM Drenkow, Sheila
2021SP Business 73362 ACC-311 3 Computer Accounting T TH Online 1/11/2021 5/2/2021 8:00AM 9:25AM Drenkow, Sheila
2021SP Business 73363 BUS-186 3 Business Law II M W On-Campus 1/11/2021 5/14/2021 8:00AM 9:25AM Gill, Bradley
2021SP Business 73365 FIN-121 3 Personal Finance T TH On-Campus 1/11/2021 5/14/2021 9:35AM 11:00AM Gill, Bradley
2021SP Business 73366 MGT-130 3 Principles of Supervision M W F On-Campus 1/11/2021 5/14/2021 2:30PM 3:25PM Gill, Bradley
2021SP Computer Science 73367 BCA-240 3 Graphic Design T TH On-Campus 1/11/2021 5/14/2021 11:10AM 12:35PM
2021SP Computer Science 73368 CSC-110 3 Introduction to Computers M W F On-Campus 1/11/2021 5/14/2021 11:15AM 12:10PM Gill, Bradley
2021SP Computer Science 73369 CSC-110 3 Introduction to Computers M W F On-Campus 1/11/2021 5/14/2021 12:20PM 1:15PM Gill, Bradley
2021SP Communications 73371 ENG-105 3 Composition I T TH On-Campus 1/11/2021 5/14/2021 11:10AM 12:35PM Jurrens, Amy
2021SP Communications 73372 ENG-106 3 Composition II M W F On-Campus 1/11/2021 5/14/2021 10:10AM 11:05AM Pick, Kaylyn
2021SP Communications 73373 ENG-106 3 Composition II M W F On-Campus 1/11/2021 5/14/2021 11:15AM 12:10PM Jurrens, Amy
2021SP Communications 73374 SPC-112 3 Public Speaking M W F On-Campus 1/11/2021 5/14/2021 8:00AM 8:55AM Pick, Kaylyn
2021SP Communications 73375 SPC-112 3 Public Speaking M On-Campus 1/11/2021 5/14/2021 6:00PM 9:00PM
2021SP Communications 73376 SPC-112 3 Public Speaking M W F On-Campus 1/11/2021 5/14/2021 10:10AM 11:05AM Jurrens, Amy
2021SP Communications 73377 SPC-112 3 Public Speaking M W F On-Campus 1/11/2021 5/14/2021 2:30PM 3:25PM Jurrens, Amy
2021SP Education 73379 EDU-150 1 Directed Observation On-Campus 1/11/2021 5/14/2021 White, Jerry
2021SP Education 73380 EDU-240 3 Educational Psychology M W F On-Campus 1/11/2021 5/14/2021 1:25PM 2:20PM White, Jerry
2021SP Humanities 73381 ART-143 3 Painting T TH On-Campus 1/11/2021 5/14/2021 3:00PM 4:30PM
2021SP Humanities 73382 ART-163 3 Sculpture T TH On-Campus 1/11/2021 5/14/2021 1:25PM 2:55PM
2021SP Humanities 73383 ART-173 3 Ceramics M On-Campus 1/11/2021 5/14/2021 4:00PM 7:00PM
2021SP Humanities 73384 ART-173 3 Ceramics TH On-Campus 1/11/2021 5/14/2021 4:00PM 7:00PM
2021SP Humanities 73385 HIS-111 3 Western Civ: Early Mod to Pres T TH Hybrid 1/11/2021 5/14/2021 2:30PM 3:15PM Thiner, Adam
2021SP Humanities 73386 HIS-111 3 Western Civ: Early Mod to Pres M W F On-Campus 1/11/2021 5/14/2021 11:15AM 12:10PM Thiner, Adam
2021SP Social Science 73387 HIS-152 3 U.S.History Since 1877 M W F On-Campus 1/11/2021 5/14/2021 2:30PM 3:25PM Thiner, Adam
2021SP Humanities 73388 PHI-101 3 Introduction to Philosophy M W F On-Campus 1/11/2021 5/14/2021 12:20PM 1:15PM
2021SP Humanities 73389 PHI-105 3 Intro to Ethics M W F On-Campus 1/11/2021 5/14/2021 10:10AM 11:05AM
2021SP Humanities 73390 REL-101 3 Survey of World Religions M W F On-Campus 1/11/2021 5/14/2021 11:15AM 12:10PM
2021SP Mathematics 73391 MAT-110 3 Math for Liberal Arts M W F On-Campus 1/11/2021 5/14/2021 1:25PM 2:20PM Grapevine, Susan
2021SP Mathematics 73392 MAT-110 3 Math for Liberal Arts M W F On-Campus 1/11/2021 5/14/2021 10:10AM 11:05AM Harris, Karla
2021SP Mathematics 73393 MAT-110 3 Math for Liberal Arts M W F On-Campus 1/11/2021 5/14/2021 2:30PM 3:25PM Harris, Karla
2021SP Mathematics 73394 MAT-121 4 College Algebra M T W TH On-Campus 1/11/2021 5/14/2021 9:05AM 10:00AM Harris, Karla
2021SP Mathematics 73395 MAT-156 3 Statistics T TH On-Campus 1/11/2021 5/14/2021 11:10AM 12:35PM Grapevine, Susan
2021SP Mathematics 73396 MAT-216 4 Calculus II M T W TH On-Campus 1/11/2021 5/14/2021 7:45AM 8:40AM Grapevine, Susan
2021SP Science 73397 BIO-151 3 Nutrition M W Hybrid 1/11/2021 5/14/2021 12:20PM 1:05PM Knobloch, Tadd
2021SP Science 73398 BIO-165 3 Human Anatomy and Physiology I TH On-Campus 1/11/2021 5/14/2021 5:30PM 8:30PM Knobloch, Tadd
2021SP Science 73399 BIO-167 1 Human Anatomy and Phys I Lab TH On-Campus 1/11/2021 5/14/2021 8:30PM 10:30PM Knobloch, Tadd
2021SP Science 73400 BIO-170 3 Human Anat and Phys II M T W On-Campus 1/11/2021 5/14/2021 10:10AM 11:05AM Albrecht, Brian
2021SP Science 73401 BIO-170 3 Human Anat and Phys II M W F On-Campus 1/11/2021 5/14/2021 9:05AM 10:00AM Albrecht, Brian
2021SP Science 73402 BIO-170 3 Human Anat and Phys II T On-Campus 1/11/2021 5/14/2021 5:30PM 8:30PM Knobloch, Tadd
2021SP Science 73403 BIO-172 1 Human Anat and Phy II Lab M On-Campus 1/11/2021 5/14/2021 1:55PM 3:55PM Albrecht, Brian
2021SP Science 73404 BIO-172 1 Human Anat and Phy II Lab M On-Campus 1/11/2021 5/14/2021 11:15AM 1:15PM Albrecht, Brian
2021SP Science 73405 BIO-172 1 Human Anat and Phy II Lab T On-Campus 1/11/2021 5/14/2021 8:30PM 10:30PM Knobloch, Tadd
2021SP Science 73406 BIO-172 1 Human Anat and Phy II Lab W On-Campus 1/11/2021 5/14/2021 11:15AM 1:15PM Albrecht, Brian
2021SP Science 73407 BIO-172 1 Human Anat and Phy II Lab F On-Campus 1/11/2021 5/14/2021 11:15AM 1:15PM Albrecht, Brian
2021SP Science 73408 ENV-115 3 Environmental Science M W F On-Campus 1/11/2021 5/14/2021 1:25PM 2:20PM Knobloch, Tadd
2021SP Science 73409 ENV-116 1 Environmental Science Lab TH On-Campus 1/11/2021 5/14/2021 1:25PM 3:25PM Knobloch, Tadd
2021SP Social Science 73410 ECN-120 3 Principles of Macroeconomics M W F On-Campus 1/11/2021 5/14/2021 1:25PM 2:20PM Gill, Bradley
2021SP Social Science 73411 PSY-111 3 Introduction to Psychology M W F On-Campus 1/11/2021 5/14/2021 12:20PM 1:15PM White, Jerry
2021SP Social Science 73412 PSY-111 3 Introduction to Psychology M W F On-Campus 1/11/2021 5/14/2021 2:30PM 3:25PM White, Jerry
2021SP Social Science 73413 PSY-111 3 Introduction to Psychology M On-Campus 1/11/2021 5/14/2021 4:00PM 7:00PM
2021SP Social Science 73414 PSY-121 3 Developmental Psychology M W F On-Campus 1/11/2021 5/14/2021 10:10AM 11:05AM White, Jerry
2021SP Social Science 73415 PSY-121 3 Developmental Psychology W On-Campus 1/11/2021 5/14/2021 4:00PM 7:00PM
2021SP Social Science 73416 PSY-241 3 Abnormal Psychology M W F On-Campus 1/11/2021 5/14/2021 9:05AM 10:00AM White, Jerry
2021SP Social Science 73417 SOC-110 3 Introduction to Sociology M On-Campus 1/11/2021 5/14/2021 3:30PM 6:30PM
2021SP Social Science 73418 SOC-115 3 Social Problems M W F On-Campus 1/11/2021 5/14/2021 2:30PM 3:25PM
2021SP Social Science 73420 SOC-120 3 Marriage and Family M W F On-Campus 1/11/2021 5/14/2021 1:25PM 2:20PM
2021SP Communications 73421 ENG-014 1 Mastery Writing On-Campus 1/11/2021 5/14/2021 Murphy, Leah
2021SP Mathematics 73422 MAT-044 1 Mastery Math On-Campus 1/11/2021 5/14/2021 Murphy, Leah
2021SP Student Development 73423 SDV-130 1 Career Exploration W On-Campus 1/11/2021 5/14/2021 9:05AM 10:00AM
2021SP Communications 73424 COM-741 3 Oral Communications M W F On-Campus 1/11/2021 5/14/2021 1:25PM 2:20PM Boone, Janet
2021SP Communications 73425 COM-753 3 Technical Communications T TH On-Campus 1/11/2021 5/14/2021 3:35PM 5:00PM Pick, Kaylyn
2021SP Communications 73426 COM-753 3 Technical Communications M W F On-Campus 1/11/2021 5/14/2021 12:20PM 1:15PM Pick, Kaylyn
2021SP Communications 73427 COM-753 3 Technical Communications M W On-Campus 1/11/2021 5/14/2021 2:30PM 4:00PM Pick, Kaylyn
2021SP Mathematics 73428 MAT-106 3 Elementary Algebra M W F On-Campus 1/11/2021 5/14/2021 12:20PM 1:15PM Harris, Karla
2021SP Mathematics 73429 MAT-124 3 Algebra & Trigonometry M W F On-Campus 1/11/2021 5/14/2021 11:15AM 12:10PM Harris, Karla
2021SP Mathematics 73431 MAT-131 1 Trigonometry T TH Other 3/15/2021 5/14/2021 10:10AM 11:05AM Grapevine, Susan
2021SP Social Science 73432 PSY-102 3 Human and Work Relations M W F On-Campus 1/11/2021 5/14/2021 1:25PM 2:20PM
2021SP Business 73433 ACC-360 2 Accounting Spreadsheets M W Online 1/11/2021 5/2/2021 12:20PM 1:15PM Drenkow, Sheila
2021SP Business 73434 BCA-217 4 Advanced Microsoft Office Appl M W On-Campus 1/11/2021 5/14/2021 8:00AM 10:00AM Boone, Janet
2021SP Business & Computer Science 73435 ADM-167 3 Office Procedures II T TH On-Campus 1/11/2021 5/14/2021 8:00AM 9:25AM Boone, Janet
2021SP Business & Computer Science 73436 ADM-159 3 Proofreading and Editing M W On-Campus 1/11/2021 5/14/2021 10:10AM 11:35AM Boone, Janet
2021SP Business 73437 ADM-946 3 Seminar T TH On-Campus 1/11/2021 5/14/2021 1:25PM 2:55PM Boone, Janet
2021SP Health 73438 HIT-290 3 Reimbursement Methods Online 1/11/2021 5/2/2021 Schneider, MariBeth
2021SP Health 73439 HIT-380 3 Health Records in Alternate SE Online 1/11/2021 5/14/2021 Schneider, MariBeth
2021SP Health 73440 HIT-594 1 HIT Practicum A Online 3/8/2021 5/2/2021 Schneider, MariBeth
2021SP Health 73441 HIT-315 2 Electronic App for HC Data Online 1/11/2021 5/2/2021 Schneider, MariBeth
2021SP Health 73442 HIT-440 3 Quality Management Online 1/11/2021 5/2/2021
2021SP Health 73443 HIT-541 3 Prof Practice Experience II Online 3/8/2021 5/2/2021 Schneider, MariBeth
2021SP Health 73444 HIT-946 1 Seminar Online 3/8/2021 5/2/2021 Schneider, MariBeth
2021SP Health 73445 PHR-941 1 Pharmacy Technician Practicum W On-Campus 1/11/2021 5/14/2021 5:00PM 6:00PM
2021SP Health 73446 PHR-120 3 Pharmacology for Pharmacy Tech W On-Campus 1/11/2021 5/14/2021 6:00PM 9:00PM
2021SP Health 73447 PNN-670 4 Practical Nursing IA W Other 1/11/2021 3/4/2021 8:00AM 10:00AM
M T Other 1/11/2021 3/4/2021 8:00AM 12:00PM
2021SP Health 73448 PNN-650 1 Nursing Concepts IIA W Other 1/11/2021 3/4/2021 11:00AM 1:00PM
2021SP Health 73449 PNN-671 2 Practical Nursing IA-Clinical TH F Other 1/11/2021 3/4/2021 8:00AM 3:25PM
2021SP Health 73450 PNN-672 4 Practical Nursing IB W Other 3/15/2021 5/14/2021 8:00AM 10:00AM
M T Other 3/15/2021 5/14/2021 8:00AM 12:00PM
2021SP Health 73451 PNN-654 1 Nursing Concepts IIB W Other 3/15/2021 5/14/2021 11:00AM 1:00PM
2021SP Health 73452 PNN-673 2 Practical Nursing IB-Precept TH F Other 3/15/2021 5/14/2021 8:00AM 3:25PM
2021SP Health 73454 PNN-659 8 Fundamentals of Nursing T W On-Campus 1/11/2021 5/14/2021 1:25PM 3:25PM
T W On-Campus 1/11/2021 5/14/2021 11:15AM 1:15PM
M T W On-Campus 1/11/2021 5/14/2021 8:00AM 10:00AM
2021SP Health 73455 PNN-647 1 Nursing Concepts I M On-Campus 1/11/2021 5/14/2021 12:20PM 1:15PM
2021SP Health 73456 PNN-673 2 Practical Nursing IB-Precept T F On-Campus 1/11/2021 5/14/2021 8:00AM 3:25PM
2021SP Health 73457 PNN-672 4 Practical Nursing IB W TH On-Campus 1/11/2021 5/14/2021 12:20PM 2:50PM
2021SP Health 73458 PNN-654 1 Nursing Concepts IIB W On-Campus 1/11/2021 5/14/2021 3:00PM 4:00PM
2021SP Health 73459 ADN-704 5 ADN Nursing IIA W Other 1/11/2021 3/4/2021 8:00AM 11:00AM
W Other 1/11/2021 3/4/2021 12:00PM 2:00PM
M T Other 1/11/2021 3/4/2021 8:00AM 11:30AM
2021SP Health 73460 ADN-705 1 ADN Nursing IIA-Clinical TH F Other 1/11/2021 3/4/2021 8:00AM 3:25PM
2021SP Health 73461 ADN-708 1 Advanced Nursing Concepts II T On-Campus 1/11/2021 5/14/2021 12:30PM 1:30PM
2021SP Health 73462 ADN-706 5 ADN Nursing IIB W Other 3/15/2021 5/14/2021 8:00AM 11:00AM
W Other 3/15/2021 5/14/2021 12:00PM 2:00PM
M T Other 3/15/2021 5/14/2021 8:00AM 11:30AM
2021SP Health 73463 ADN-707 2 ADN Nursing IIB-Preceptor TH F Other 3/15/2021 5/14/2021 8:00AM 3:25PM
2021SP Health 73464 ADN-701 1 ADN Nursing IA: Clinical M On-Campus 1/11/2021 5/14/2021 8:00AM 3:25PM
2021SP Health 73466 RAD-230 4 Clinical Education II M T On-Campus 1/11/2021 5/14/2021 8:00AM 3:25PM
2021SP Health 73467 RAD-142 4 Radiographic Procedures II TH On-Campus 1/11/2021 5/14/2021 1:30PM 3:30PM Steffen, Lacey
TH On-Campus 1/11/2021 5/14/2021 11:30AM 1:30PM Steffen, Lacey
W On-Campus 1/11/2021 5/14/2021 9:00AM 12:00PM Steffen, Lacey
W On-Campus 1/11/2021 5/14/2021 12:30PM 2:30PM Steffen, Lacey
2021SP Health 73468 RAD-365 2 Imaging II TH On-Campus 1/11/2021 5/14/2021 9:05AM 11:05AM Vanbeek, Kelsey
2021SP Health 73469 RAD-104 2 Radiologic Patient Care F On-Campus 1/11/2021 5/14/2021 1:00PM 3:00PM Cowan, Mary
2021SP Health 73470 RAD-890 1 Quality Assurance F On-Campus 1/11/2021 5/14/2021 11:30AM 12:30PM Cowan, Mary
2021SP Health 73471 RAD-550 6 Clinical Education V W TH F On-Campus 1/11/2021 5/14/2021 8:00AM 4:30PM
2021SP Health 73472 RAD-750 3 Radiographic Pathology M On-Campus 1/11/2021 5/14/2021 9:00AM 12:00PM Cowan, Mary
2021SP Health 73473 RAD-690 1 Cross Sectional Anatomy T On-Campus 1/11/2021 5/14/2021 10:00AM 11:00AM
2021SP Health 73474 RAD-362 2 Computer & Digital Radiography T Hybrid 1/11/2021 5/14/2021 9:00AM 10:00AM Cowan, Mary
2021SP Health 73475 ADN-700 5 ADN Nursing IA TH On-Campus 1/11/2021 5/14/2021 8:00AM 11:00AM
T On-Campus 1/11/2021 5/14/2021 8:00AM 11:00AM
2021SP Health 73510 HSC-172 3 Nurse Aid Off-Campus 1/11/2021 5/20/2021
2021SP Health 73511 HSC-172 3 Nurse Aid Off-Campus 1/18/2021 5/26/2021
2021SP Mechanics 73512 AUT-165 5 Automotive Engine Repair M T W TH F On-Campus 1/11/2021 5/14/2021 9:00AM 11:35AM Gaard, James
2021SP Mechanics 73513 AUT-165 5 Automotive Engine Repair M T W TH F On-Campus 1/11/2021 5/14/2021 12:40PM 3:15PM Gaard, James
2021SP Mechanics 73514 AUT-805 6 Auto Engine Performance I M T W TH F On-Campus 1/11/2021 2/19/2021 6:55AM 12:20PM Ball, Charles
2021SP Mechanics 73515 AUT-251 6 Automotive Drive Trains I M T W TH F On-Campus 2/22/2021 4/15/2021 6:55AM 11:25AM Steinle, Mark
2021SP Mechanics 73516 AUT-867 3 Intro to Light Duty Diesel M T W TH F On-Campus 4/19/2021 5/14/2021 6:55AM 11:45AM Steinle, Mark
2021SP Mechanics 73517 AUT-252 6 Automotive Drive Trains II M T W TH F On-Campus 1/11/2021 2/19/2021 7:15AM 12:15PM Steinle, Mark
2021SP Mechanics 73518 AUT-868 7 Diesel Syst Diagnosis & Repair M T W TH F On-Campus 2/22/2021 5/14/2021 7:15AM 11:15AM Ball, Charles
2021SP Technologies 73519 CAD-231 4 Geometric Dimensioning & Toler M T W TH F On-Campus 1/11/2021 5/14/2021 6:55AM 7:50AM Steffen, Ryan
2021SP Technologies 73520 CAD-246 3 Parametric Cad I M T W TH F Other 1/11/2021 3/4/2021 8:00AM 9:50AM Steffen, Ryan
2021SP Technologies 73521 MFG-264 3 Cnc Lathe Programming & Setup M T W TH F On-Campus 1/11/2021 5/14/2021 10:00AM 11:45AM Radtke, Willis
2021SP Applied Technologies 73522 MFG-325 3 CAM I M T W TH F Other 1/11/2021 3/4/2021 12:35PM 2:15PM Radtke, Willis
2021SP Technologies 73523 CAD-248 3 Parametric CAD II M T W TH F Other 3/15/2021 5/14/2021 8:00AM 9:50AM Steffen, Ryan
2021SP Technologies 73524 MFG-455 4 Industrial Plastic and Injecti M T W TH F On-Campus 1/11/2021 5/14/2021 8:00AM 9:10AM Radtke, Willis
2021SP Technologies 73525 MFG-220 3 Design Technology Final Design M T W TH F On-Campus 1/11/2021 5/14/2021 11:45AM 12:35PM Radtke, Willis
2021SP Applied Technologies 73527 MFG-548 3 Fluid Power M T W TH F Other 1/11/2021 3/4/2021 12:45PM 2:30PM Steffen, Ryan
2021SP Mechanics 73528 WEL-265 3 Intro to Welding Fabrication M T W TH F On-Campus 1/11/2021 5/14/2021 2:40PM 3:30PM Hoting, Robert
2021SP Applied Technologies 73529 AUT-139 1 Basic Weld Thry & Applications M T W TH F Other 1/11/2021 3/4/2021 6:55AM 7:50AM Hoting, Robert
2021SP Mechanics 73530 DSL-636 4 Air Systems & Brakes M T W TH F On-Campus 1/11/2021 2/19/2021 8:30AM 12:20PM
2021SP Mechanics 73531 DSL-157 4 Intro to Diesel Electronics M T W TH F On-Campus 2/22/2021 3/31/2021 8:00AM 12:30PM Kramer, Kenneth
2021SP Mechanics 73532 DSL-158 4 Hydraulics Fundamentals M T W TH F On-Campus 4/1/2021 5/14/2021 8:30AM 12:20PM Kramer, Kenneth
2021SP Mechanics 73533 DSL-811 2 Advanced Diesel Electronics M T W TH F Other 1/11/2021 3/4/2021 6:55AM 7:45AM Engelkes, Nathanel
2021SP Applied Technologies 73534 DSL-820 10 Truck & Diesel Lab II M T W TH F On-Campus 1/11/2021 5/14/2021 8:00AM 11:50AM Engelkes, Nathanel
2021SP Mechanics 73535 DSL-812 2 Adv Diesel Engines & Fuel Syst M T W TH F Other 3/15/2021 5/14/2021 6:55AM 7:45AM Engelkes, Nathanel
2021SP Applied Technologies 73536 HEQ-161 5 Equipment Recondition Theory I M T W TH F Other 1/11/2021 3/4/2021 8:00AM 9:45AM Koenen, Andrew
2021SP Applied Technologies 73537 HEQ-163 5 Equipment Reconditioning Lab I M T W TH F Other 1/11/2021 3/4/2021 9:55AM 11:55AM Koenen, Andrew
M T W TH F Other 1/11/2021 3/4/2021 12:45PM 2:15PM Koenen, Andrew
2021SP Applied Technologies 73538 HEQ-155 4 Stake and Plan Reading M T W TH F Other 3/15/2021 5/14/2021 8:00AM 9:45AM Koenen, Andrew
2021SP Applied Technologies 73539 HEQ-152 4 Equipment Operation & Maint I M T W TH F Other 3/15/2021 5/14/2021 9:55AM 11:55AM Koenen, Andrew
M T W TH F Other 3/15/2021 5/14/2021 12:45PM 2:25PM Koenen, Andrew
2021SP Applied Technologies 73540 HEQ-267 6 Equipment Recondition Lab III M T W TH F Other 1/11/2021 3/4/2021 6:55AM 11:25AM Starn, Eric
2021SP Applied Technologies 73541 HEQ-252 2 Job Estimating M T W TH F Other 1/11/2021 3/4/2021 12:20PM 1:15PM Starn, Eric
2021SP Applied Technologies 73542 ELE-161 8 Commercial Wiring Theory/Lab M T W TH F On-Campus 1/11/2021 5/14/2021 8:00AM 11:05AM Klein, Troy; Krull, Byron
2021SP Applied Technologies 73543 ELE-121 4 Fundamentals of Electricity-Ac M T W TH F On-Campus 1/11/2021 5/14/2021 11:15AM 12:10PM Klein, Troy
2021SP Applied Technologies 73544 ELE-109 4 Commercial Blueprint Reading M T W TH F On-Campus 1/11/2021 5/14/2021 1:25PM 2:20PM Klein, Troy
2021SP Technologies 73545 ELT-183 3 Electronic Control M T W TH F Other 3/15/2021 5/14/2021 8:00AM 10:00AM Louters, Philip
2021SP Applied Technologies 73546 ELE-191 2 Motor Theory M T W TH F Other 3/15/2021 5/14/2021 10:10AM 11:05AM Louters, Philip
2021SP Applied Technologies 73547 ELE-154 5 Codes and Standards M T W TH F On-Campus 1/11/2021 5/14/2021 11:15AM 12:10PM Krull, Byron
2021SP Student Development 73548 SDV-135 1 Job Seeking Skills M W Other 1/11/2021 3/4/2021 6:55AM 7:50AM Bohnet, Mark
2021SP Technologies 73549 ELT-182 3 Introduction to Electronics M T W TH F Other 1/11/2021 3/4/2021 8:00AM 10:00AM Louters, Philip
2021SP Applied Technologies 73550 ELE-170 2 Power Distribution M T W TH F Other 1/11/2021 3/4/2021 10:10AM 11:05AM Louters, Philip
2021SP Technologies 73551 ELE-199 5 Motor Controls Principles M T W TH F Other 1/11/2021 3/4/2021 8:00AM 11:05AM Bohnet, Mark
2021SP Applied Technologies 73552 ELE-168 6 Industrial Wiring Theory /Lab M T W TH F On-Campus 1/11/2021 5/14/2021 1:25PM 3:25PM Krull, Byron
2021SP Technologies 73553 ELE-211 5 Programmable Controllers M T W TH F Other 3/15/2021 5/14/2021 8:00AM 11:05AM Bohnet, Mark
2021SP Computer Science 73554 ELT-193 3 Computer Programming for Tech. T W TH F On-Campus 1/11/2021 5/14/2021 11:15AM 12:10PM Gaalswyk, Russell
2021SP Technologies 73555 ELT-550 4 Analog Devices M T W TH F Other 1/11/2021 3/4/2021 2:40PM 4:25PM Louters, Philip
2021SP Applied Technologies 73556 ELE-163 3 Electrical Wiring M T W TH F Other 3/15/2021 5/14/2021 1:25PM 3:10PM Louters, Philip
2021SP Applied Technologies 73557 ELT-329 4 Digital Electronics for ET M T W TH F Other 3/15/2021 5/14/2021 3:20PM 5:05PM Louters, Philip
2021SP Applied Technologies 73558 ELT-631 6 Microprocessors & Interfacing M T W TH F On-Campus 1/11/2021 5/14/2021 6:55AM 8:40AM Gaalswyk, Russell
2021SP Applied Technologies 73559 ELT-646 7 Process Control M T W TH F On-Campus 1/11/2021 5/14/2021 8:50AM 10:35AM Gaalswyk, Russell
2021SP Technologies 73560 ELT-261 9 Advanced Plc's M T W TH F On-Campus 1/11/2021 5/14/2021 12:20PM 2:05PM Bohnet, Mark
2021SP Applied Technologies 73561 PWL-174 4 Field Training III M T W TH F Other 1/11/2021 3/4/2021 8:00AM 11:05AM Dvorak, Aaron
2021SP Applied Technologies 73562 PWL-174 4 Field Training III M T W TH F Other 1/11/2021 3/4/2021 8:00AM 11:05AM Dvorak, Aaron; Soole, Jeffrey
2021SP Technologies 73563 PWL-191 4 Transformers & Connections T TH Other 1/11/2021 3/4/2021 12:00PM 2:50PM Soole, Jeffrey; Dvorak, Aaron
M W F Other 1/11/2021 3/4/2021 12:20PM 2:20PM Soole, Jeffrey; Dvorak, Aaron
2021SP Applied Technologies 73564 PWL-176 4 Field Training IV M T W TH F Other 3/15/2021 5/14/2021 8:00AM 11:05AM Anderson, Bryce
2021SP Applied Technologies 73565 PWL-176 4 Field Training IV M T W TH F Other 3/15/2021 5/14/2021 8:00AM 11:05AM Anderson, Bryce; Kracht, Milet
2021SP Applied Technologies 73566 PWL-183 3 Line Maintenance T TH Other 3/15/2021 5/14/2021 12:20PM 1:15PM Anderson, Bryce
M W F Other 3/15/2021 5/14/2021 12:20PM 2:20PM Anderson, Bryce
2021SP Student Development 73567 SDV-135 1 Job Seeking Skills T TH Other 3/15/2021 5/14/2021 1:25PM 2:20PM Kracht, Milet
2021SP Applied Technologies 73568 PWL-183 3 Line Maintenance T TH Other 1/11/2021 3/4/2021 10:10AM 11:05AM Anderson, Bryce
M W F Other 1/11/2021 3/4/2021 9:05AM 11:05AM Anderson, Bryce
2021SP Student Development 73569 SDV-135 1 Job Seeking Skills T TH Other 1/11/2021 3/4/2021 9:05AM 10:00AM Kracht, Milet
2021SP Applied Technologies 73570 PWL-176 4 Field Training IV M T W TH F Other 1/11/2021 3/4/2021 12:20PM 3:25PM Anderson, Bryce
2021SP Applied Technologies 73571 PWL-176 4 Field Training IV M T W TH F Other 1/11/2021 3/4/2021 12:20PM 3:25PM Anderson, Bryce; Kracht, Milet
2021SP Applied Technologies 73572 PWL-186 3 Transmission and Distribution M T W TH F Other 3/4/2021 5/14/2021 8:00AM 11:05AM Dvorak, Aaron
2021SP Applied Technologies 73573 PWL-182 3 Underground Distribution M T W TH F Other 3/15/2021 5/14/2021 8:00AM 11:05AM Soole, Jeffrey
2021SP Applied Technologies 73574 PWL-178 4 Field Training V M T W TH F Other 3/15/2021 5/14/2021 12:20PM 3:25PM Dvorak, Aaron
2021SP Applied Technologies 73575 PWL-178 4 Field Training V M T W TH F Other 3/15/2021 5/14/2021 12:20PM 3:25PM Dvorak, Aaron; Soole, Jeffrey
2021SP Mechanics 73576 WEL-200 2 Metallurgy Fundamentals M T W TH F Other 1/11/2021 3/4/2021 8:00AM 8:55AM Hoting, Robert
2021SP Applied Technologies 73577 WEL-187 4 Advanced GMAW M T W TH F On-Campus 1/11/2021 3/4/2021 9:05AM 10:00AM Hoting, Robert
M T W TH F On-Campus 3/15/2021 5/14/2021 8:00AM 10:00AM Hoting, Robert
2021SP Mechanics 73578 WEL-320 3 Welding Fabrication M T W TH F On-Campus 1/11/2021 5/14/2021 10:10AM 11:05AM Hoting, Robert
2021SP Mechanics 73579 WEL-191 3 Tungsten Arc Welding M T W TH F On-Campus 1/11/2021 5/14/2021 11:15AM 12:10PM Hoting, Robert
2021SP Mechanics 73580 WEL-206 2 Quality Assurance Program M T W TH F On-Campus 1/11/2021 5/14/2021 1:25PM 2:20PM Hoting, Robert
2021SP Social Science 73581 POL-112 3 American State and Local Gov Online 1/11/2021 5/2/2021
2021SP Computer Science 73688 CIS-333 4 Data Base and SQL M T W TH F On-Campus 1/11/2021 5/14/2021 11:15AM 12:10PM Bowlsby, Jared
2021SP Computer Science 73690 NET-303 3 Windows Workstation Operating T TH On-Campus 1/11/2021 5/14/2021 1:30PM 3:30PM Bowlsby, Jared
2021SP Computer Science 73691 NET-603 3 Wireless & Mobile Implementati T TH On-Campus 1/11/2021 5/14/2021 9:35AM 11:00AM Bowlsby, Jared
2021SP Computer Science 73692 NET-608 3 Penetration Testing Methodolog M W F On-Campus 1/11/2021 5/14/2021 1:25PM 2:20PM Bowlsby, Jared
2021SP Business 73887 FIN-101 3 Principles of Banking Online 1/11/2021 5/2/2021
2021SP Agriculture 73959 AGS-242 3 Animal Health Off-Campus 1/5/2021 5/25/2021
2021SP Health 73991 HSC-172 3 Nurse Aid T TH On-Campus 1/12/2021 3/2/2021 4:00PM 9:30PM Paulsen, Julie
2021SP Health 73992 HSC-172 3 Nurse Aid M W On-Campus 2/15/2021 4/5/2021 4:00PM 9:30PM Paulsen, Julie
2021SP Health 73993 HSC-172 3 Nurse Aid On-Campus 1/25/2021 4/30/2021 Paulsen, Julie
2021SP Health 73994 HSC-172 3 Nurse Aid On-Campus 3/22/2021 5/7/2021 Paulsen, Julie
2021SP Humanities 74000 ART-101 3 Art Appreciation Online 2/8/2021 5/2/2021
2021SP Communications 74001 ENG-106 3 Composition II Online 2/8/2021 5/2/2021
2021SP Communications 74002 ENG-105 3 Composition I Online 2/8/2021 5/2/2021
2021SP Business 74003 MKT-110 3 Principles of Marketing Online 2/8/2021 5/2/2021
2021SP Social Science 74004 SOC-110 3 Introduction to Sociology Online 2/8/2021 5/2/2021
2021SP Social Science 74005 SOC-115 3 Social Problems Online 2/8/2021 5/2/2021
2021SP Humanities 74006 REL-101 3 Survey of World Religions Online 2/8/2021 5/2/2021
2021SP Business 74007 MGT-101 3 Principles of Management Online 2/8/2021 5/2/2021
2021SP Humanities 74008 MUS-100 3 Music Appreciation Online 2/8/2021 5/2/2021
2021SP Social Science 74010 PSY-111 3 Introduction to Psychology Online 2/8/2021 5/2/2021
2021SP Social Science 74011 PSY-241 3 Abnormal Psychology Online 2/8/2021 5/2/2021
2021SP Social Science 74012 PSY-121 3 Developmental Psychology Online 2/8/2021 5/2/2021
2021SP Science 74013 BIO-151 3 Nutrition Online 2/8/2021 5/2/2021
2021SP Science 74014 BIO-168 4 Human Anatomy & Physiology I Online 2/8/2021 5/2/2021
2021SP Science 74015 BIO-173 4 Human Anatomy & Physiology II Online 2/8/2021 5/2/2021
2021SP Communications 74016 SPC-112 3 Public Speaking Online 2/8/2021 5/2/2021
2021SP Science 74017 BIO-186 4 Microbiology Online 2/8/2021 5/2/2021
2021SP Mathematics 74018 MAT-110 3 Math for Liberal Arts Online 2/8/2021 5/2/2021
2021SP Mathematics 74019 MAT-121 4 College Algebra Online 2/8/2021 5/2/2021
2021SP Mathematics 74020 MAT-156 3 Statistics Online 2/8/2021 5/2/2021
2021SP Social Science 74021 POL-111 3 American National Government Online 2/8/2021 5/2/2021
2021SP Business 74022 BUS-102 3 Introduction to Business Online 2/8/2021 5/2/2021
2021SP Business 74023 BUS-185 3 Business Law I Online 2/8/2021 5/2/2021
2021SP Computer Science 74024 CSC-110 3 Introduction to Computers Online 2/8/2021 5/2/2021
2021SP Science 74025 ENV-111 4 Environmental Science Online 2/8/2021 5/2/2021
2021SP Humanities 74026 FLS-141 4 Elementary Spanish I Online 2/8/2021 5/2/2021
2021SP Humanities 74027 GEO-121 3 World Regional Geography Online 2/8/2021 5/2/2021
2021SP Humanities 74028 HIS-110 3 West. Civ: Ancient to Erly Mod Online 2/8/2021 5/2/2021
2021SP Social Science 74029 HIS-151 3 U.S. History to 1877 Online 2/8/2021 5/2/2021
2021SP Social Science 74030 HIS-152 3 U.S.History Since 1877 Online 2/8/2021 5/2/2021
2021SP Health 74032 HSC-113 2 Medical Terminology Online 2/8/2021 5/2/2021
2021SP Health 74033 HSC-114 3 Medical Terminology Online 2/8/2021 5/2/2021
2021SP Humanities 74034 LIT-101 3 Introduction to Literature Online 2/8/2021 5/2/2021
2021SP Mathematics 74035 MAT-772 3 Applied Math Online 2/8/2021 5/2/2021
2021SP Coaching 74036 PEC-120 1 Body Structure and Function Online 2/24/2021 3/17/2021
2021SP Humanities 74037 PHI-101 3 Introduction to Philosophy Online 2/8/2021 5/2/2021
2021SP Humanities 74038 PHI-105 3 Intro to Ethics Online 2/8/2021 5/2/2021
2021SP Social Science 74039 SOC-120 3 Marriage and Family Online 2/8/2021 5/2/2021
2021SP Communications 74041 SPC-122 3 Interpersonal Communication Online 2/8/2021 5/2/2021
2021SP Health 74049 HSC-172 3 Nurse Aid Off-Campus 1/11/2021 5/20/2021
2021SP Health 74050 HSC-172 3 Nurse Aid Off-Campus 1/5/2021 5/20/2021
2021SP Humanities 74093 ART-143 3 Painting TH On-Campus 1/11/2021 5/14/2021 6:00PM 9:00PM
2021SP Humanities 74117 ART-101 3 Art Appreciation Online 1/11/2021 5/2/2021
Tuition & Financial Aid